Weather in Coronation

Canada     52°05′39″N   111°26′56″W
temp.,
°C
wind,
m/s
gust,
m/s
humid.,
%
clouds,
%
prec.,
mm/h
press.,
hPa
HPBL,
m
17 may, mon
mon1700:00+17se614427 0.0 1003318
03:00+17s817424 0.0 1001422
06:00+15sw513486 0.0 1001319
09:00+16nw566788 0.0 1001400
12:00+21nnw324965 0.0 1000863
15:00+24sw233788 0.0 9981586
18:00+25s36314 0.0 9962171
21:00+21s4114118 0.0 995239
18 may, tue
tue1800:00+19ssw717367 0.0 995580
03:00+16sw6134310 0.0 995487
06:00+14wsw81561100 0.0 9961044
09:00+12w7973100 0.0 998731
12:00+16w4852100 0.0 9971397
15:00+20sw11122338 0.0 9943656
18:00+11nw9970100 1.4 998925
21:00+3wnw81283100 1.2 1004829
19 may, wed
wed1900:00+2wnw81493100 1.8 1008933
03:00+2wnw8138699 0.2 10101214
06:00+1wnw6138892 0.3 10131039
09:00+3nw8106696 0.1 10161174
12:00+5nw8105798 0.1 10161328
15:00+6nw7854100 0.0 10181553
18:00+5nnw6758100 0.1 10191346
21:00+3n466699 0.0 1022802
20 may, thu
thu2000:00+1n3674100 0.0 1024331
03:00−1nne347999 0.0 1026102
06:00−2nne3687100 0.0 1027178
09:00+2ne3358100 0.0 1027788
12:00+6ene3343100 0.0 10261249
15:00+9ene3333100 0.0 10251472
18:00+9e3432100 0.0 10241606
21:00+7e3643100 0.0 1026164
21 may, fri
fri2100:00+4e3648100 0.0 1027138
03:00+3ese3549100 0.0 1029112
06:00+3ese3852100 0.0 1029218
09:00+6ese4546100 0.0 1029610
12:00+8ese4539100 0.1 10291304
15:00+10se664898 0.0 10271785
18:00+9sse455090 0.0 10271580
21:00+7s355823 0.0 1028338